Puyallup, WA
on Sunday, January 27, 2013

Sunday
Previous Day Next Day
Daily Summary
 ActualAverage (KSEA)Record (KSEA)
Temperature
Mean Temperature °F 43°F  
Max Temperature 41°F 48°F 58°F (1952)
Min Temperature 37°F 37°F 11°F (1957)
Degree Days
Heating Degree Days 26 22  
Month to date heating degree days 622  
Since 1 July heating degree days 2560  
Cooling Degree Days 0 0  
Month to date cooling degree days 0  
Year to date cooling degree days 0  
Moisture
Dew Point 38°F   
Average Humidity 96    
Maximum Humidity 100    
Minimum Humidity 87    
Precipitation
Precipitation 0.11 in 0.16 in 1.61 in (1967)
Month to date precipitation 4.94  
Year to date precipitation 4.94  
Snow
Snow 0.00 in in 14.90 in (1969)
Month to date snowfall  
Since 1 July snowfall  
Snow Depth in   
Wind
Wind Speed 3 mph   
Max Wind Speed 9 mph   
Max Gust Speed 16 mph   
Visibility 9 miles   
Events Rain   

Key: T is trace of precipitation, MM is missing value
Source: NWS Daily Summary
Time(PST)TemperatureDew PointHumidity Pressure Visibility Wind DirectionWind SpeedGust SpeedPrecipitationEvents Conditions
12:15 AM 39.2°F 37.4°F 93% 30.04 in 10.0 miles Calm Calm - N/A   Overcast
12:35 AM 39.2°F 37.4°F 93% 30.04 in 10.0 miles Calm Calm - N/A   Overcast
12:55 AM 39.2°F 37.4°F 93% 30.04 in 10.0 miles Calm Calm - N/A   Overcast
1:15 AM 39.2°F 37.4°F 93% 30.04 in 10.0 miles Calm Calm - N/A   Overcast
1:35 AM 39.2°F 37.4°F 93% 30.04 in 10.0 miles Calm Calm - N/A   Overcast
1:55 AM 39.2°F 37.4°F 93% 30.04 in 10.0 miles Calm Calm - N/A   Overcast
2:15 AM 39.2°F 37.4°F 93% 30.04 in 10.0 miles Calm Calm - N/A   Overcast
2:35 AM 39.2°F 37.4°F 93% 30.05 in 10.0 miles Calm Calm - N/A   Mostly Cloudy
2:55 AM 39.2°F 37.4°F 93% 30.05 in 10.0 miles SW 3.5 mph - N/A   Mostly Cloudy
3:15 AM 39.2°F 37.4°F 93% 30.04 in 10.0 miles Calm Calm - N/A   Overcast
3:35 AM 39.2°F 37.4°F 93% 30.04 in 10.0 miles Calm Calm - N/A   Overcast
3:55 AM 39.2°F 37.4°F 93% 30.04 in 4.0 miles SSW 4.6 mph - 0.01 in Rain Light Rain
4:15 AM 39.2°F 39.2°F 100% 30.04 in 5.0 miles SSW 3.5 mph - N/A   Overcast
4:35 AM 39.2°F 39.2°F 100% 30.04 in 10.0 miles SSW 4.6 mph - N/A   Overcast
4:55 AM 39.2°F 37.4°F 93% 30.04 in 10.0 miles SW 3.5 mph - N/A   Overcast
5:15 AM 39.2°F 37.4°F 93% 30.04 in 10.0 miles SW 4.6 mph - N/A   Overcast
5:35 AM 39.2°F 39.2°F 100% 30.04 in 10.0 miles SSW 3.5 mph - N/A   Overcast
5:55 AM 39.2°F 37.4°F 93% 30.04 in 10.0 miles SW 4.6 mph - N/A   Overcast
6:15 AM 39.2°F 37.4°F 93% 30.05 in 10.0 miles SW 3.5 mph - N/A   Overcast
6:35 AM 39.2°F 37.4°F 93% 30.05 in 10.0 miles SW 3.5 mph - N/A   Overcast
6:55 AM 39.2°F 37.4°F 93% 30.05 in 10.0 miles SW 4.6 mph - N/A   Overcast
7:15 AM 39.2°F 37.4°F 93% 30.05 in 10.0 miles SW 5.8 mph - N/A   Overcast
7:35 AM 39.2°F 37.4°F 93% 30.05 in 10.0 miles SW 4.6 mph - N/A   Overcast
7:55 AM 39.2°F 37.4°F 93% 30.06 in 10.0 miles SW 4.6 mph - N/A   Overcast
8:15 AM 37.4°F 37.4°F 100% 30.06 in 10.0 miles SSW 3.5 mph - N/A   Mostly Cloudy
8:35 AM 37.4°F 37.4°F 100% 30.06 in 10.0 miles Calm Calm - N/A   Partly Cloudy
8:55 AM 39.2°F 37.4°F 93% 30.07 in 10.0 miles SW 5.8 mph - N/A   Clear
9:15 AM 39.2°F 37.4°F 93% 30.07 in 10.0 miles SW 4.6 mph - N/A   Clear
9:35 AM 41.0°F 37.4°F 87% 30.07 in 10.0 miles SW 4.6 mph - N/A   Clear
9:55 AM 41.0°F 37.4°F 87% 30.07 in 10.0 miles SSW 5.8 mph - N/A   Scattered Clouds
10:15 AM 41.0°F 37.4°F 87% 30.08 in 10.0 miles SW 6.9 mph - N/A   Scattered Clouds
10:35 AM 41.0°F 37.4°F 87% 30.08 in 10.0 miles SW 3.5 mph - N/A   Partly Cloudy
10:55 AM 41.0°F 37.4°F 87% 30.08 in 8.0 miles SSW 6.9 mph - N/A Rain Light Rain
11:15 AM 41.0°F 37.4°F 87% 30.08 in 5.0 miles WSW 9.2 mph 16.1 mph N/A Rain Light Rain
11:35 AM 39.2°F 37.4°F 93% 30.07 in 5.0 miles SW 5.8 mph - 0.01 in Rain Light Rain
11:55 AM 39.2°F 37.4°F 93% 30.06 in 7.0 miles SSW 4.6 mph - 0.02 in Rain Light Rain
12:15 PM 39.2°F 37.4°F 93% 30.06 in 5.0 miles SW 5.8 mph - N/A Rain Light Rain
12:55 PM 39.2°F 39.2°F 100% 30.04 in 6.0 miles SW 4.6 mph - 0.01 in Rain Light Rain
1:15 PM 39.2°F 37.4°F 93% 30.03 in 6.0 miles SSW 6.9 mph - 0.01 in Rain Light Rain
1:35 PM 39.2°F 37.4°F 93% 30.03 in 5.0 miles SW 5.8 mph - 0.01 in Rain Light Rain
1:55 PM 39.2°F 37.4°F 93% 30.02 in 5.0 miles South 4.6 mph - 0.02 in Rain Light Rain
2:15 PM 37.4°F 37.4°F 100% 30.02 in 7.0 miles South 5.8 mph - 0.01 in Rain Light Rain
2:35 PM 37.4°F 37.4°F 100% 30.02 in 7.0 miles SSW 4.6 mph - 0.02 in Rain Light Rain
2:55 PM 37.4°F 37.4°F 100% 30.02 in 6.0 miles SSW 6.9 mph - 0.02 in Rain Light Rain
3:15 PM 37.4°F 37.4°F 100% 30.02 in 7.0 miles South 4.6 mph - N/A Rain Light Rain
3:35 PM 37.4°F 37.4°F 100% 30.02 in 5.0 miles South 4.6 mph - N/A Rain Light Rain
3:55 PM 37.4°F 37.4°F 100% 30.01 in 7.0 miles SSW 6.9 mph - 0.01 in Rain Light Rain
4:15 PM 37.4°F 37.4°F 100% 30.01 in 8.0 miles SSW 5.8 mph - N/A Rain Light Rain
4:35 PM 37.4°F 37.4°F 100% 30.01 in 6.0 miles SSW 5.8 mph - N/A Rain Light Rain
4:55 PM 37.4°F 37.4°F 100% 30.01 in 5.0 miles SSW 3.5 mph - 0.01 in Rain Light Rain
5:15 PM 37.4°F 37.4°F 100% 30.01 in 7.0 miles SSW 5.8 mph - N/A Rain Light Rain
5:35 PM 37.4°F 37.4°F 100% 30.01 in 6.0 miles South 5.8 mph - N/A Rain Light Rain
5:55 PM 37.4°F 37.4°F 100% 30.00 in 9.0 miles SSW 4.6 mph - 0.01 in Rain Light Rain
6:15 PM 37.4°F 37.4°F 100% 30.00 in 10.0 miles SSW 4.6 mph - N/A   Overcast
6:35 PM 37.4°F 37.4°F 100% 30.00 in 10.0 miles South 3.5 mph - N/A   Overcast
6:55 PM 37.4°F 37.4°F 100% 30.00 in 10.0 miles SSW 3.5 mph - N/A   Overcast
7:15 PM 37.4°F 37.4°F 100% 30.00 in 10.0 miles WSW 4.6 mph - N/A   Overcast
7:35 PM 37.4°F 37.4°F 100% 30.01 in 10.0 miles Calm Calm - N/A   Overcast
7:55 PM 37.4°F 37.4°F 100% 30.01 in 10.0 miles Calm Calm - N/A   Mostly Cloudy
8:15 PM 37.4°F 37.4°F 100% 30.01 in 10.0 miles Calm Calm - N/A   Mostly Cloudy
8:35 PM 37.4°F 37.4°F 100% 30.01 in 10.0 miles Calm Calm - N/A Rain Light Rain
8:55 PM 37.4°F 37.4°F 100% 30.01 in 8.0 miles Calm Calm - N/A Rain Light Rain
9:15 PM 37.4°F 37.4°F 100% 30.01 in 10.0 miles Calm Calm - N/A Rain Light Rain
9:35 PM 37.4°F 37.4°F 100% 30.01 in 10.0 miles Calm Calm - N/A   Overcast
9:55 PM 37.4°F 37.4°F 100% 30.00 in 10.0 miles Calm Calm - N/A   Overcast
10:15 PM 37.4°F 37.4°F 100% 30.01 in 10.0 miles Calm Calm - N/A   Mostly Cloudy
10:35 PM 37.4°F 37.4°F 100% 30.00 in 10.0 miles Calm Calm - N/A   Mostly Cloudy
10:55 PM 37.4°F 37.4°F 100% 30.00 in 10.0 miles Calm Calm - N/A   Mostly Cloudy
11:15 PM 37.4°F 37.4°F 100% 30.01 in 10.0 miles Calm Calm - N/A   Overcast
11:55 PM 37.4°F 37.4°F 100% 30.01 in 10.0 miles Calm Calm - N/A   Overcast
Moon Phase
Jan. 27 Feb. 03 Feb. 10 Feb. 17 Feb. 25
Sunrise:07:39 AM (PST) Moon Rise:06:11 PM (PST)
Sunset:05:04 PM (PST) Moon Set:07:29 AM (PST)

Copyright © 2014 The Weather Underground, Inc.